Shannon, Ireland

3:47 AM IST on April 23, 2018 (GMT +0100)
Shannon

Weather History for EINN - November, 2010

Change the Weather History Date:

Tuesday, November 2, 2010

  Actual Average Record
Temperature  
Mean Temperature 54 °F -  
Max Temperature 56 °F 51 °F 61 °F (2015)
Min Temperature 51 °F 40 °F 30 °F (2006)
Degree Days  
Heating Degree Days 12    
Growing Degree Days 4 (Base 50)    
Moisture  
Dew Point 51 °F    
Average Humidity 90    
Maximum Humidity 100    
Minimum Humidity 77    
Precipitation  
Precipitation 0.51 in 0.13 in - ()
Sea Level Pressure  
Sea Level Pressure 29.63 in    
Wind  
Wind Speed 21 mph ()    
Max Wind Speed 33 mph    
Max Gust Speed 47 mph    
Visibility 5.3 miles    
Events Rain    
Averages and records for this station are not official NWS values.
T = Trace of Precipitation, MM = Missing Value Source: Averaged Metar Reports

Daily Weather History Graph

Daily Weather History Graph

Search for Another Location

Airport or City:

Astronomy

Nov. 02, 2010 Rise Set
Actual Time 7:34 AM GMT 5:03 PM GMT
Civil Twilight 6:57 AM GMT 5:40 PM GMT
Nautical Twilight 6:16 AM GMT 6:20 PM GMT
Astronomical Twilight 5:37 AM GMT 7:00 PM GMT
Moon 2:33 AM GMT (11/2) 3:01 PM GMT (11/2)
Length of Visible Light 10h 42m
Length of Day
9h 29m
Waning Crescent, 18% of the Moon is Illuminated
Nov 2
Waning Crescent
Nov 6
New
Nov 13
First Quarter
Nov 21
Full
Nov 28
Last Quarter

Hourly Weather History & Observations

Time (GMT) Temp. Dew Point Humidity Pressure Visibility Wind Dir Wind Speed Gust Speed Precip Events Conditions
12:00 AM 53 °F 48 °F 78% 29.70 in 12 mi SSW 15.7 mph - -   Mostly Cloudy
12:00 AM 53.6 °F 48.2 °F 82% 29.68 in 6.2 mi SSW 16.1 mph - N/A   Mostly Cloudy
12:30 AM 53.6 °F 48.2 °F 82% 29.68 in 6.2 mi SW 19.6 mph - N/A   Mostly Cloudy
1:00 AM 55.4 °F 48.2 °F 77% 29.68 in 6.2 mi SW 25.3 mph - N/A   Mostly Cloudy
1:30 AM 55.4 °F 48.2 °F 77% 29.68 in 6.2 mi SW 27.6 mph 39.1 mph N/A   Mostly Cloudy
2:00 AM 55.4 °F 50.0 °F 82% 29.68 in 6.2 mi SW 28.8 mph 41.4 mph N/A   Mostly Cloudy
2:30 AM 55.4 °F 50.0 °F 82% 29.65 in 6.2 mi SW 26.5 mph - N/A   Mostly Cloudy
3:00 AM 55.4 °F 50.0 °F 82% 29.68 in 6.2 mi WSW 25.3 mph - N/A   Mostly Cloudy
3:30 AM 55.4 °F 48.2 °F 77% 29.68 in 6.2 mi SW 24.2 mph - N/A   Mostly Cloudy
4:00 AM 55.4 °F 50.0 °F 82% 29.68 in 6.2 mi SW 25.3 mph 36.8 mph N/A   Mostly Cloudy
4:30 AM 55.4 °F 50.0 °F 82% 29.65 in 6.2 mi SW 25.3 mph - N/A   Mostly Cloudy
5:00 AM 55.4 °F 50.0 °F 82% 29.65 in 6.2 mi SW 27.6 mph - N/A   Mostly Cloudy
5:30 AM 53.6 °F 50.0 °F 88% 29.65 in 6.2 mi SW 20.7 mph - N/A   Mostly Cloudy
6:00 AM 54 °F 50 °F 83% 29.68 in 6 mi SW 24.6 mph - - Rain Light Rain Showers
6:00 AM 53.6 °F 50.0 °F 88% 29.65 in 5.6 mi SW 24.2 mph - N/A Rain Light Rain Showers
6:30 AM 53.6 °F 50.0 °F 88% 29.65 in 6.2 mi SW 25.3 mph - N/A   Overcast
7:00 AM 53.6 °F 50.0 °F 88% 29.65 in 6.2 mi SW 23.0 mph - N/A   Mostly Cloudy
7:30 AM 53.6 °F 51.8 °F 94% 29.65 in 5.0 mi SW 24.2 mph - N/A Rain Light Rain Showers
8:00 AM 53.6 °F 50.0 °F 88% 29.68 in 6.2 mi SW 24.2 mph 36.8 mph N/A   Mostly Cloudy
8:30 AM 55.4 °F 50.0 °F 82% 29.65 in 6.2 mi SW 28.8 mph - N/A   Mostly Cloudy
9:00 AM 55.4 °F 50.0 °F 82% 29.65 in 6.2 mi SW 26.5 mph - N/A   Mostly Cloudy
9:30 AM 55.4 °F 50.0 °F 82% 29.65 in 6.2 mi SW 26.5 mph - N/A   Mostly Cloudy
10:00 AM 53.6 °F 50.0 °F 88% 29.65 in 5.0 mi SW 23.0 mph - N/A Rain Light Rain Showers
10:30 AM 53.6 °F 51.8 °F 94% 29.68 in 5.0 mi SW 21.9 mph - N/A   Mostly Cloudy
11:00 AM 53.6 °F 51.8 °F 94% 29.65 in 5.0 mi SW 23.0 mph - N/A Rain Light Rain
11:30 AM 53.6 °F 51.8 °F 94% 29.62 in 5.0 mi SW 19.6 mph - N/A Rain Light Rain
12:00 PM 53 °F 52 °F 93% 29.63 in 5 mi SSW 17.9 mph - - Rain Light Rain
12:00 PM 53.6 °F 51.8 °F 94% 29.62 in 5.0 mi SSW 17.3 mph - N/A Rain Light Rain
12:30 PM 53.6 °F 51.8 °F 94% 29.59 in 3.1 mi SSW 21.9 mph - N/A Rain Light Rain
1:00 PM 53.6 °F 51.8 °F 94% 29.59 in 1.9 mi SSW 18.4 mph - N/A Rain Rain
1:30 PM 53.6 °F 53.6 °F 100% 29.56 in 3.1 mi SSW 19.6 mph - N/A Rain Light Rain
2:00 PM 55.4 °F 53.6 °F 94% 29.56 in 2.5 mi SW 26.5 mph - N/A Rain Rain
2:30 PM 55.4 °F 53.6 °F 94% 29.53 in 2.5 mi SW 29.9 mph - N/A Rain Rain
3:00 PM 55.4 °F 53.6 °F 94% 29.53 in 3.1 mi SW 27.6 mph 39.1 mph N/A Rain Light Rain
3:30 PM 55.4 °F 53.6 °F 94% 29.53 in 4.3 mi SW 31.1 mph 47.2 mph N/A Rain Light Rain
4:00 PM 55.4 °F 53.6 °F 94% 29.53 in 5.6 mi SW 29.9 mph - N/A   Mostly Cloudy
4:30 PM 55.4 °F 53.6 °F 94% 29.53 in 4.3 mi SW 33.4 mph 47.2 mph N/A Rain Light Rain
5:00 PM 55.4 °F 53.6 °F 94% 29.53 in 2.8 mi SW 27.6 mph 39.1 mph N/A Rain Light Rain
5:30 PM 55.4 °F 55.4 °F 100% 29.56 in 2.5 mi SW 28.8 mph - N/A Rain Light Rain
6:00 PM 56 °F 55 °F 95% 29.57 in 4 mi SW 24.6 mph - - Rain Light Drizzle
6:00 PM 55.4 °F 55.4 °F 100% 29.56 in 3.7 mi SW 25.3 mph - N/A   Light Drizzle
6:30 PM 55.4 °F 55.4 °F 100% 29.56 in 2.2 mi WSW 24.2 mph - N/A   Light Drizzle
7:00 PM 55.4 °F 53.6 °F 94% 29.59 in 6.2 mi West 19.6 mph - N/A   Mostly Cloudy
7:30 PM 53.6 °F 53.6 °F 100% 29.59 in 6.2 mi West 16.1 mph - N/A   Mostly Cloudy
8:00 PM 53.6 °F 51.8 °F 94% 29.59 in 6.2 mi West 15.0 mph - N/A   Mostly Cloudy
8:30 PM 53.6 °F 51.8 °F 94% 29.62 in 6.2 mi WSW 13.8 mph - N/A   Scattered Clouds
9:00 PM 51.8 °F 50.0 °F 94% 29.65 in 6.2 mi WSW 12.7 mph - N/A   Scattered Clouds
9:30 PM 51.8 °F 50.0 °F 94% 29.65 in 6.2 mi WSW 11.5 mph - N/A   Mostly Cloudy
10:00 PM 51.8 °F 50.0 °F 94% 29.65 in 6.2 mi WSW 10.4 mph - N/A   Scattered Clouds
10:30 PM 51.8 °F 50.0 °F 94% 29.68 in 6.2 mi WSW 13.8 mph - N/A   Scattered Clouds
11:00 PM 51.8 °F 50.0 °F 94% 29.68 in 6.2 mi West 10.4 mph - N/A   Mostly Cloudy
11:30 PM 51.8 °F 48.2 °F 88% 29.71 in 6.2 mi West 15.0 mph - N/A   Mostly Cloudy